Northfield, Minnesota, United States (55057)
Lat: 44.46N, Lon: 93.16W
Wx Zone: MNZ077
Local Info
Past Weather Observations for Today

NOTE: This archive is for the closest National Weather Service station to Northfield. Information may differ from the station used for current weather conditions.

Click here for Long-term Archive

Time Weather Temperature Dewpoint Humidity Pressure Winds Precip Visibility
07:50
Clear
52°F / 11°C 50°F / 10°C 94% 30.27 in
(1025 mb)
Calm - 10SM
07:31
Clear
50°F / 10°C 48°F / 9°C 94% 30.27 in
(1025 mb)
Calm - 10SM
07:10
Clear
Fog And Mist
48°F / 9°C 46°F / 8°C 94% 30.27 in
(1025 mb)
Calm - 5SM
06:50
Clear
Fog And Mist
46°F / 8°C 45°F / 7°C 93% 30.27 in
(1025 mb)
Calm - 5SM
06:31
Clear
Fog And Mist
45°F / 7°C 43°F / 6°C 93% 30.27 in
(1025 mb)
Calm - 5SM
06:10
Clear
Fog And Mist
43°F / 6°C 41°F / 5°C 93% 30.27 in
(1025 mb)
SW 4.6 mph
(SW 7 kph)
- 5SM
05:51
Clear
Fog And Mist
41°F / 5°C 39°F / 4°C 93% 30.24 in
(1024 mb)
Calm - 4SM
05:31
Clear
43°F / 6°C 41°F / 5°C 93% 30.24 in
(1024 mb)
Calm - 7SM
05:10
Clear
Fog And Mist
43°F / 6°C 41°F / 5°C 93% 30.24 in
(1024 mb)
Calm - 5SM
04:51
Clear
Fog And Mist
43°F / 6°C 41°F / 5°C 93% 30.24 in
(1024 mb)
Calm - 5SM
04:30
Clear
Fog And Mist
43°F / 6°C 41°F / 5°C 93% 30.24 in
(1024 mb)
Calm - 3SM
04:11
Clear
Fog And Mist
43°F / 6°C 43°F / 6°C 100% 30.24 in
(1024 mb)
Calm - 5SM
03:51
Clear
45°F / 7°C 43°F / 6°C 93% 30.24 in
(1024 mb)
Calm - 7SM
03:30
Clear
45°F / 7°C 43°F / 6°C 93% 30.21 in
(1023 mb)
Calm - 7SM
03:11
Clear
45°F / 7°C 43°F / 6°C 93% 30.21 in
(1023 mb)
Calm - 7SM
02:51
Clear
45°F / 7°C 43°F / 6°C 93% 30.21 in
(1023 mb)
Calm - 7SM
02:30
Clear
45°F / 7°C 43°F / 6°C 93% 30.21 in
(1023 mb)
Calm - 7SM
02:11
Clear
45°F / 7°C 43°F / 6°C 93% 30.21 in
(1023 mb)
Calm - 10SM
01:50
Clear
45°F / 7°C 43°F / 6°C 93% 30.21 in
(1023 mb)
S 3.5 mph
(S 6 kph)
- 7SM
01:31
Clear
45°F / 7°C 43°F / 6°C 93% 30.24 in
(1024 mb)
Calm - 10SM
01:11
Clear
45°F / 7°C 43°F / 6°C 93% 30.24 in
(1024 mb)
Calm - 10SM
00:50
Clear
45°F / 7°C 43°F / 6°C 93% 30.24 in
(1024 mb)
Calm - 10SM
00:31
Clear
46°F / 8°C 45°F / 7°C 93% 30.21 in
(1023 mb)
Calm - 10SM
00:11
Clear
45°F / 7°C 43°F / 6°C 93% 30.21 in
(1023 mb)
SSE 3.5 mph
(SSE 6 kph)
- 10SM
Time Weather Temperature Dewpoint Humidity Pressure Winds Precip Visibility


Weather for websites

WeatherForYou.com, LLC is not responsible for any damages or problems caused by this service. Current weather conditions are obtained from the closest station including government and personal stations which may have varying degrees of accuracy. Weather forecasts are derived from the NOAA NDFD. Like all things, this site belongs to Jesus Christ... He just trusts me to maintain it. If you have any questions or comments email webmaster@weatherforyou.com

Copyright © 2014, WeatherForYou.com LLC. All rights reserved.